GFSGBSN_700_spd_132.txt.gz
Wind_Speed
48 45 42 38 42 36 31 30 31 30 29 24 21 20 20 22 21 19 21 21 18 16 15 15 17 18 18 18 19 19 20 21 20 20 20 21 22 23 22 23 25 27 28 29 30 31 32
46 48 49 50 47 37 38 31 30 29 29 26 29 24 24 24 24 22 19 22 22 19 17 17 17 17 19 21 22 20 20 19 20 21 21 21 22 23 24 25 24 28 28 29 32 30 32
45 45 45 47 45 46 46 41 40 34 31 31 31 28 30 30 26 22 23 19 21 22 21 20 19 18 19 21 21 20 19 19 20 21 21 19 18 18 20 23 24 23 27 28 29 23 20
43 45 45 47 47 50 52 49 45 39 37 38 35 34 36 29 30 25 24 21 20 22 22 20 18 19 21 21 20 21 20 20 21 22 19 18 18 20 20 20 23 23 22 8 11 18 19
42 44 46 47 49 50 50 52 52 53 50 48 39 38 36 31 31 26 26 25 24 20 22 20 16 17 21 21 20 20 19 17 15 19 20 21 20 20 20 17 14 13 10 15 14 15 18
41 42 45 47 48 49 51 52 51 53 52 54 45 39 36 37 34 32 27 28 25 23 18 15 16 15 19 17 16 16 14 14 16 18 20 20 20 16 14 8 13 12 17 16 17 15 23
40 42 44 45 47 49 50 51 52 51 51 49 49 46 47 41 41 33 28 28 26 22 16 15 12 13 17 16 17 16 14 15 15 17 16 17 12 9 11 12 14 16 16 22 19 21 23
37 39 42 45 48 50 50 50 51 52 51 49 50 50 48 39 43 36 34 31 30 20 14 13 18 20 20 18 17 17 13 12 14 12 14 12 8 10 8 13 16 14 17 22 20 7 28
40 41 43 46 48 49 51 52 50 51 52 48 49 46 43 40 45 40 31 28 23 21 16 16 18 18 18 17 17 16 11 11 12 11 8 8 8 12 10 11 13 15 18 21 27 24 25
41 43 44 47 50 52 53 53 52 52 54 51 45 45 48 42 45 38 27 23 23 16 9 12 20 19 19 17 16 14 10 9 7 5 6 6 8 11 12 10 10 14 10 13 24 25 12
42 44 45 47 49 52 57 57 55 56 55 51 45 46 54 41 43 34 26 27 24 17 5 9 21 20 20 16 12 11 9 5 4 5 5 5 13 8 5 4 8 11 16 19 21 25 24
43 47 47 48 54 56 56 59 58 59 57 56 45 45 47 45 49 28 30 26 22 13 9 14 20 20 20 16 13 10 6 3 4 4 4 7 5 1 2 7 11 13 16 19 8 6 6
44 49 48 47 51 53 54 55 57 60 61 58 47 45 49 43 47 34 32 30 19 10 9 16 24 22 16 16 12 8 5 3 3 2 1 1 6 3 4 11 6 5 12 5 4 6 6
41 46 51 47 44 45 47 55 55 55 56 56 43 42 45 49 32 33 38 37 10 18 18 15 20 21 14 15 12 11 8 5 4 1 1 1 5 2 6 7 6 6 4 5 6 8 16
36 38 46 38 27 33 42 52 52 56 51 42 45 40 41 38 32 34 38 33 15 18 29 25 22 18 13 18 12 13 12 9 5 2 1 0 2 6 4 2 4 5 3 9 8 17 10
30 30 36 34 19 19 32 40 41 41 43 44 44 50 44 46 41 37 41 22 17 18 27 27 16 16 17 18 14 17 13 11 6 1 2 1 3 5 5 2 4 5 9 4 5 5 8
25 21 14 7 31 28 23 34 38 48 48 45 46 49 42 40 38 41 40 22 23 21 25 23 17 18 14 18 14 17 13 11 8 1 2 1 0 2 3 2 3 4 6 8 9 10 5
18 13 7 6 24 48 56 54 44 48 41 44 55 46 43 44 42 39 26 17 21 27 26 21 18 17 17 19 15 11 14 7 9 3 5 1 2 4 4 7 2 2 9 6 6 3 15
11 6 5 10 14 23 25 40 48 36 42 45 42 37 41 43 27 29 26 26 23 23 21 20 20 18 18 20 10 12 15 12 8 5 4 4 0 4 3 6 7 5 12 9 10 14 5
9 3 2 9 15 18 22 21 34 39 42 42 38 37 43 44 27 32 33 26 27 24 20 18 15 17 21 19 13 17 16 11 7 7 2 4 1 3 8 7 9 7 11 10 5 7 5
6 5 5 4 11 18 22 27 36 43 47 41 44 39 46 42 34 35 29 24 22 22 18 15 16 18 20 16 16 18 14 11 10 8 1 5 2 6 10 11 10 1 9 10 9 12 6
6 6 4 11 22 29 33 40 41 40 38 30 29 40 33 39 31 31 30 25 29 23 21 22 15 20 21 17 12 20 16 14 8 8 1 3 2 7 5 5 10 6 7 13 10 9 9
3 2 12 18 21 29 30 33 34 35 29 25 23 33 20 40 35 32 27 26 24 26 19 16 18 21 19 17 15 18 16 16 12 7 3 1 1 5 4 3 10 2 8 6 11 11 11
10 8 12 20 23 28 30 35 36 35 26 21 26 32 24 30 26 24 28 28 26 22 16 21 18 16 16 15 14 12 12 12 10 7 4 1 3 4 4 2 3 1 4 4 3 5 8
8 14 17 21 24 23 26 30 32 30 24 19 27 30 30 26 28 28 26 25 25 19 14 16 15 14 15 14 15 10 9 10 9 8 6 5 4 4 3 1 5 2 7 4 7 8 8
11 14 19 24 25 24 23 24 31 31 20 23 18 22 24 27 21 26 25 21 24 21 18 16 15 15 15 18 14 10 8 9 7 4 9 8 6 4 4 3 3 5 7 4 3 6 6
13 14 22 24 27 22 20 21 28 30 26 19 15 17 15 27 29 24 24 26 22 20 18 17 17 16 16 17 10 8 6 10 8 8 7 6 5 7 5 4 3 5 4 2 2 6 10
16 19 24 23 24 22 22 23 30 31 23 18 16 17 18 20 27 23 19 19 17 17 15 16 17 16 17 13 9 6 6 9 7 7 7 6 4 4 3 5 4 4 3 5 6 9 10
17 22 24 30 28 27 25 24 21 20 19 19 19 19 20 22 26 22 17 15 12 12 13 16 14 18 16 12 9 8 7 10 10 6 8 4 6 4 5 6 5 2 2 3 4 7 9

GFSGBSN_700_spd_135.txt.gz
Wind_Speed
46 46 45 44 44 41 39 35 31 31 30 30 29 26 24 20 16 17 17 16 17 19 18 18 19 19 18 15 18 17 19 19 18 17 16 15 15 16 12 13 16 22 22 21 25 29 29
43 44 44 43 42 44 42 40 37 34 32 31 29 28 27 23 19 20 21 17 16 17 21 19 19 20 20 18 22 19 19 18 17 17 16 16 17 18 19 20 19 17 27 29 28 24 24
44 43 42 42 42 42 44 48 47 40 32 32 29 28 30 27 24 23 23 21 17 14 17 21 23 23 23 25 23 21 18 19 18 17 18 18 19 18 22 18 20 23 25 24 24 18 18
42 43 43 43 43 43 44 41 42 44 41 40 31 32 30 27 26 27 26 22 23 17 16 18 22 24 24 24 24 21 19 20 17 16 17 16 15 18 19 20 22 19 17 16 9 10 15
41 42 42 43 44 45 46 46 44 45 48 44 39 35 36 37 30 31 29 26 25 22 21 21 21 23 17 23 22 21 18 17 15 13 14 16 16 17 19 12 15 15 11 10 18 16 16
41 41 42 43 44 44 45 47 48 47 47 47 48 45 37 38 34 33 31 28 27 26 24 21 23 19 23 17 16 13 13 13 12 14 17 14 13 10 11 8 14 13 17 17 20 18 23
38 39 41 43 44 44 45 46 46 48 49 48 46 49 49 48 45 39 36 32 31 31 28 22 19 21 27 18 15 16 13 11 13 14 7 11 9 13 11 9 12 12 16 18 18 20 20
36 37 38 39 40 42 44 45 46 46 48 49 47 47 46 48 45 42 44 35 37 29 18 22 27 27 25 21 17 17 14 11 10 7 10 9 10 10 16 9 10 12 17 16 17 11 23
34 35 37 38 39 40 41 42 44 45 46 49 48 45 44 49 50 53 39 42 35 40 22 23 24 25 25 21 12 12 12 10 9 11 10 12 9 15 14 8 11 13 17 17 18 19 22
37 39 40 40 41 42 43 45 45 46 46 48 50 47 44 49 46 50 47 38 33 29 17 17 27 26 26 19 15 14 14 11 10 7 10 10 13 10 8 10 9 12 10 14 16 18 19
40 39 39 40 40 41 41 43 47 50 51 51 51 51 44 44 47 47 41 40 35 31 1 12 21 23 23 22 15 15 15 11 9 8 8 4 6 8 8 7 6 8 13 17 20 18 22
36 36 38 41 43 44 44 46 50 52 53 56 53 52 45 43 43 42 38 39 30 12 8 20 23 27 24 23 14 11 11 10 11 9 10 12 10 7 6 7 8 11 14 18 17 10 9
38 38 40 43 46 46 47 50 53 55 56 56 56 53 46 42 42 42 39 37 18 8 12 23 23 27 24 21 16 13 12 9 7 6 11 8 7 6 6 5 5 5 12 11 6 8 10
38 40 42 45 48 46 46 50 52 53 54 59 59 56 45 42 43 44 39 40 10 15 23 11 24 26 25 21 17 15 12 12 9 7 6 11 8 10 7 3 3 4 5 8 7 10 15
38 39 42 46 46 42 45 47 50 56 56 60 61 55 51 47 42 44 41 25 21 15 25 21 25 29 21 24 17 16 16 14 10 7 7 8 8 9 6 4 2 3 3 6 8 14 17
36 37 40 43 43 38 40 36 37 45 58 60 58 54 47 54 46 42 44 34 26 19 21 27 23 29 24 27 17 22 19 15 12 10 10 6 5 8 6 4 8 7 7 6 5 5 9
32 33 33 36 39 28 21 24 18 32 46 50 50 51 52 46 49 49 45 31 22 22 23 30 16 23 22 27 18 22 17 12 13 12 9 6 5 6 5 7 4 4 2 4 11 15 8
25 26 25 27 27 26 16 14 14 14 35 36 53 52 52 52 38 41 35 29 20 24 25 25 16 14 21 22 20 16 19 8 16 12 6 7 6 6 5 6 6 4 1 5 6 11 14
17 19 19 16 13 12 27 49 33 22 45 55 56 53 42 46 36 45 25 25 20 28 20 16 16 14 19 23 15 16 15 14 19 13 10 6 4 5 7 5 9 4 4 9 14 17 19
11 12 14 13 9 14 27 49 61 66 63 57 56 38 48 49 37 37 26 21 25 24 20 17 13 16 21 21 11 19 18 19 17 15 14 10 7 6 3 3 4 4 6 9 11 14 7
8 9 10 9 14 16 21 25 31 56 50 53 45 42 51 52 30 36 33 27 29 27 17 18 15 18 21 18 14 19 18 18 18 16 12 6 5 6 6 5 7 6 1 6 4 6 4
7 7 9 6 6 8 16 21 29 41 44 45 46 48 43 39 32 32 31 31 29 19 24 20 17 20 19 16 12 23 20 17 13 17 10 6 6 5 3 3 11 6 4 1 2 3 3
6 5 6 5 8 7 23 28 32 37 36 25 34 41 42 41 47 39 29 30 26 22 16 14 15 18 15 15 11 17 15 15 11 13 9 6 6 3 4 6 6 7 8 9 2 1 2
7 3 3 7 10 18 33 31 34 26 33 23 24 24 26 39 36 29 25 25 22 23 21 18 20 18 21 24 21 21 19 16 15 14 9 7 5 3 2 7 6 5 5 6 8 8 5
10 7 7 13 17 31 25 31 26 24 24 23 31 23 19 29 27 23 24 25 22 16 21 21 20 20 21 18 15 11 9 9 9 9 8 7 5 4 4 5 4 5 4 7 5 8 10
12 10 12 9 20 25 35 31 28 23 31 28 27 19 19 23 26 21 27 26 23 22 22 23 21 18 21 17 13 13 9 13 10 9 11 9 6 5 7 9 4 10 5 4 5 9 10
13 10 15 12 22 31 33 37 28 28 30 23 20 18 21 24 21 23 25 22 18 18 14 22 22 21 23 14 14 14 8 12 12 11 13 11 7 9 9 7 3 5 5 4 3 4 7
15 12 15 16 27 30 29 32 30 24 23 18 17 16 21 23 33 27 26 28 20 17 16 23 22 20 22 15 15 11 7 12 9 10 12 11 9 7 9 8 7 9 5 6 9 10 9
16 15 15 23 26 25 20 19 23 21 18 16 17 16 19 25 32 27 22 21 22 20 19 18 14 22 13 13 12 10 7 9 11 8 8 9 7 5 6 6 7 8 10 10 8 6 4

GFSGBSN_700_spd_138.txt.gz
Wind_Speed
45 46 45 45 44 42 41 35 36 35 32 30 31 28 25 24 22 20 16 14 15 16 16 20 19 17 17 17 19 16 18 16 16 15 14 13 12 11 9 10 13 19 18 20 19 25 23
42 41 41 40 41 40 42 45 44 41 37 34 33 27 25 28 26 22 18 17 17 15 17 19 19 20 18 18 23 19 20 20 18 16 14 12 14 15 15 16 17 16 22 24 25 24 19
41 41 42 41 40 40 39 39 40 41 40 39 36 35 31 25 26 26 25 21 19 18 17 18 18 21 22 20 24 23 22 23 20 17 16 16 15 15 15 16 14 19 25 25 22 20 15
40 41 41 41 42 42 41 40 40 41 43 45 40 34 31 32 28 26 24 23 23 20 20 21 19 22 24 22 23 23 24 22 18 16 15 16 14 14 16 17 19 21 17 16 5 8 11
40 41 41 41 41 42 43 43 42 42 42 42 42 39 34 34 32 28 28 26 25 25 24 24 23 24 26 25 22 22 21 20 15 12 11 11 13 14 12 15 13 14 11 10 11 9 11
39 41 42 42 42 43 43 42 42 44 44 43 42 45 44 37 38 35 26 25 26 26 27 25 27 25 23 20 20 14 13 12 12 12 11 11 12 10 10 7 12 11 11 16 17 17 18
38 39 40 41 42 42 43 43 43 42 43 43 44 43 41 45 41 35 31 28 26 30 36 27 25 24 20 22 23 16 15 13 12 11 10 10 9 13 12 9 9 10 17 18 17 16 18
35 35 36 36 38 39 39 41 42 42 42 42 43 42 40 41 43 47 44 32 30 40 37 34 31 34 22 24 22 21 18 14 14 10 7 11 18 12 17 18 20 11 14 17 16 13 16
31 32 32 33 35 36 35 35 36 38 39 40 40 42 39 37 40 42 44 35 37 38 39 38 36 34 31 31 22 15 20 15 13 13 13 18 11 13 17 16 12 12 14 16 17 17 18
32 33 33 35 35 36 37 36 36 37 37 38 39 40 40 39 39 40 45 39 41 34 25 34 34 41 35 30 28 17 21 12 12 14 12 17 16 18 9 11 12 13 9 9 14 15 18
37 38 39 40 41 40 40 40 39 39 40 41 42 44 43 35 36 42 39 37 33 39 5 10 20 25 26 30 14 22 21 18 18 15 15 10 12 9 11 10 9 9 10 13 16 18 19
36 37 38 38 40 41 41 40 39 38 39 41 44 48 46 42 37 39 34 35 32 18 10 12 18 23 27 27 18 11 21 21 11 16 18 17 8 10 8 9 9 10 13 16 18 18 13
36 38 38 37 38 39 39 40 40 40 42 45 46 47 49 47 43 39 35 30 23 13 16 20 21 24 27 26 24 19 20 20 15 13 18 16 15 10 12 5 6 6 11 10 4 8 9
36 38 39 39 40 42 43 43 43 44 47 47 48 48 51 52 44 39 39 38 19 29 36 11 22 22 29 24 29 24 18 20 21 15 10 17 9 15 9 9 2 5 6 7 5 6 13
36 37 38 38 41 43 45 45 45 48 48 49 49 52 54 52 48 41 38 34 30 30 27 20 18 25 28 27 21 24 25 22 19 17 13 14 7 16 10 6 4 1 6 6 10 17 17
35 37 37 38 40 41 42 44 46 46 45 49 54 58 53 52 48 39 42 40 27 22 26 25 30 29 34 34 22 27 23 19 18 16 17 7 10 11 8 6 10 9 5 5 7 4 8
35 34 34 36 36 38 40 42 43 48 49 48 48 55 59 52 47 42 43 39 39 23 27 25 31 26 30 32 25 29 18 12 21 15 19 9 8 9 9 9 6 10 9 5 10 11 6
30 29 30 32 34 38 38 33 28 31 34 38 48 53 61 56 52 52 47 38 35 26 28 26 33 20 24 30 27 23 18 15 17 14 12 13 9 10 10 8 7 6 4 2 4 9 12
24 24 26 28 30 33 36 24 16 35 37 59 60 48 53 57 52 49 37 38 23 22 35 32 24 22 23 28 27 17 17 14 21 16 13 13 7 9 7 7 9 7 6 5 9 12 14
21 20 21 24 24 22 11 14 47 63 66 68 57 40 46 52 49 49 38 32 35 31 25 26 22 23 21 25 19 21 21 18 23 15 20 16 8 7 1 4 9 6 6 4 5 9 10
19 18 20 18 15 13 12 21 58 57 58 63 53 44 58 60 54 44 43 32 28 31 23 23 25 27 28 25 19 22 23 19 20 20 18 14 5 7 7 5 7 6 7 8 3 4 3
17 17 18 12 10 11 15 28 43 30 45 63 46 43 50 39 45 37 38 35 35 31 27 24 24 22 25 26 17 24 23 19 17 20 16 13 5 7 7 8 12 7 8 5 2 0 4
16 16 15 10 9 13 21 27 30 24 24 15 36 32 48 28 43 42 41 40 30 28 22 23 21 23 19 16 17 19 18 15 9 21 16 9 5 6 10 11 8 7 14 11 12 8 4
15 11 10 7 7 9 15 22 27 26 31 27 20 34 41 37 44 39 35 32 31 24 23 21 24 27 21 23 24 22 16 13 11 12 10 10 8 6 6 10 3 5 11 12 9 11 10
15 11 7 5 4 16 18 22 18 21 19 24 20 31 32 42 39 31 27 35 30 22 23 22 19 22 22 21 23 16 11 10 12 13 14 9 10 5 5 10 4 6 10 6 5 9 9
14 11 8 5 4 27 18 23 14 19 20 23 20 19 20 38 39 35 36 30 26 25 21 27 23 22 22 21 17 13 9 11 11 11 13 10 11 10 10 10 3 10 9 8 6 8 13
12 10 11 8 9 24 19 22 17 25 33 24 25 17 24 18 25 28 27 31 23 29 29 28 30 23 26 19 15 13 11 17 13 14 15 14 11 13 13 8 4 8 9 6 4 6 7
14 11 11 9 8 22 30 24 28 22 24 19 17 21 27 30 27 26 23 23 27 21 25 25 24 22 26 16 15 11 10 15 10 12 15 15 11 10 12 11 5 10 6 7 9 9 11
15 13 12 10 13 20 27 26 28 21 19 18 16 19 29 30 33 33 35 28 27 19 16 23 13 27 24 14 12 9 8 13 11 7 12 8 12 7 8 9 10 7 11 11 12 10 7

GFSGBSN_700_spd_141.txt.gz
Wind_Speed
42 42 42 42 43 43 42 40 38 36 37 32 26 27 27 27 23 23 20 20 15 14 17 17 15 16 15 15 15 13 13 13 13 13 14 13 12 14 12 10 12 20 18 23 25 22 22
39 39 39 39 38 37 37 38 38 37 36 35 34 31 29 27 24 22 24 23 19 18 17 19 17 16 17 17 18 15 13 15 15 16 14 13 13 13 14 14 16 17 20 22 21 21 21
39 39 38 38 37 37 37 36 37 36 36 39 38 36 32 26 28 23 20 23 24 21 21 19 19 20 15 15 19 16 19 19 15 15 14 17 13 13 17 14 16 13 18 19 15 7 7
37 37 37 37 37 37 37 37 37 37 36 36 36 36 34 32 30 27 30 28 27 28 24 21 21 23 23 21 19 20 18 18 17 13 14 16 15 13 14 14 14 17 15 11 6 5 7
38 37 37 37 36 36 37 37 38 38 38 37 37 36 39 38 37 33 30 26 29 26 25 24 22 24 27 22 15 15 16 16 16 12 11 11 10 11 13 13 12 6 12 7 5 3 4
37 38 38 38 37 37 38 38 38 38 39 39 39 38 35 34 35 32 34 37 33 33 33 29 25 22 19 18 14 12 13 13 11 11 11 11 11 12 9 2 9 12 8 16 10 8 10
37 37 37 37 38 37 37 38 38 38 39 39 39 39 36 35 38 39 42 32 37 37 31 26 20 20 24 28 27 23 16 13 14 13 12 9 13 10 5 10 19 19 15 16 23 13 15
34 34 33 33 33 33 34 34 34 36 36 36 37 36 34 32 37 39 44 44 43 31 30 22 25 34 27 33 32 23 20 17 16 15 11 10 15 10 10 17 18 20 20 25 11 11 13
32 30 29 29 29 30 29 30 30 31 32 32 34 34 34 32 32 37 39 43 37 35 34 46 28 36 31 33 35 27 25 17 19 17 15 16 11 11 13 19 20 18 20 16 18 17 17
29 27 27 27 28 28 28 28 28 28 29 30 31 32 33 31 32 34 37 37 32 27 21 43 37 43 39 39 43 29 30 20 20 20 14 15 18 22 20 20 15 16 14 14 15 11 4
29 29 30 31 30 31 31 31 31 30 30 32 33 34 36 30 30 30 28 28 21 19 4 16 21 25 22 33 24 17 30 24 24 17 17 16 11 25 26 25 17 17 19 19 19 16 15
33 33 34 34 34 34 34 35 35 35 34 32 30 34 38 37 34 29 27 20 24 16 9 14 18 20 23 28 27 9 28 27 23 21 23 23 11 14 16 8 14 16 13 12 14 14 5
34 32 33 33 34 33 34 35 34 34 33 31 31 34 39 38 34 29 28 21 16 11 16 24 19 22 24 30 26 25 34 33 24 18 24 19 25 21 19 17 16 8 9 5 1 5 5
34 33 35 34 34 34 36 36 35 34 33 32 35 36 38 37 34 35 26 26 16 19 32 11 21 21 30 30 30 26 28 29 27 20 8 16 10 23 22 20 4 15 10 5 3 0 4
34 34 35 35 34 34 35 37 39 36 36 38 39 41 42 40 40 43 34 30 26 35 15 34 14 20 30 31 23 27 30 25 23 27 13 8 19 16 12 15 13 9 12 7 2 8 5
35 35 36 35 35 34 35 35 36 36 38 40 44 47 48 45 46 40 40 39 34 39 39 17 35 24 26 33 29 30 21 23 23 22 25 12 6 19 19 16 16 14 3 5 7 1 3
36 36 35 34 35 35 34 36 35 36 37 42 46 48 52 48 42 44 49 46 49 39 29 33 35 26 24 32 34 31 21 11 27 25 28 22 10 15 17 15 12 15 13 8 6 3 3
35 35 34 34 33 33 34 37 34 35 37 38 48 53 53 49 50 54 54 56 43 35 30 28 32 34 24 28 34 32 31 20 24 29 28 25 14 14 18 9 9 9 13 11 6 2 2
33 34 32 31 31 30 30 33 33 32 32 39 38 46 40 46 57 57 53 51 41 36 28 35 27 23 27 25 25 29 24 19 18 19 20 24 12 10 11 11 15 11 10 10 4 4 7
31 31 28 27 28 27 26 25 21 20 25 48 55 36 58 64 52 56 56 43 45 37 36 29 32 23 34 24 25 23 19 21 25 25 22 21 16 13 10 7 13 17 10 9 8 5 6
30 26 25 23 25 23 21 16 20 25 32 47 27 41 59 68 57 53 57 45 38 32 33 33 27 39 33 34 33 26 23 25 24 24 26 18 17 14 8 6 11 13 11 10 10 12 6
25 23 22 21 21 19 17 14 23 27 30 36 21 40 53 46 62 38 47 39 35 39 34 32 39 36 33 30 32 32 33 33 30 29 25 23 13 13 12 10 9 9 11 9 10 9 6
22 20 20 19 19 16 17 17 28 26 29 21 10 31 46 19 61 40 47 44 37 28 34 37 30 27 29 26 28 23 24 29 22 24 24 24 14 12 6 15 15 8 14 17 16 12 9
21 17 17 17 16 18 19 21 30 27 24 21 9 22 40 30 35 49 41 39 30 33 33 35 33 31 28 28 21 18 17 13 9 14 22 20 15 8 7 16 3 8 12 20 20 14 11
18 16 14 11 13 15 19 25 34 37 34 23 21 11 31 36 29 41 34 38 41 36 37 33 33 27 24 22 25 19 16 15 12 17 18 15 12 6 6 6 3 5 12 13 15 11 10
17 15 13 10 12 13 14 14 16 15 19 20 13 16 16 33 40 45 41 48 48 31 25 27 19 24 27 29 25 14 10 12 13 13 18 19 15 13 8 4 5 5 8 6 6 8 11
16 13 11 12 12 21 21 15 19 21 19 14 22 25 24 33 33 34 39 44 38 37 34 32 31 28 28 26 25 16 11 19 14 17 22 17 15 14 13 3 1 12 12 7 7 6 6
16 13 12 12 10 25 20 17 14 17 19 22 18 22 27 30 34 34 32 40 39 36 36 36 31 26 27 22 24 14 10 17 14 20 27 22 14 13 13 4 6 16 13 11 8 6 6
16 12 12 13 13 23 21 20 15 17 19 16 17 21 24 31 34 37 34 33 26 21 29 25 26 29 24 26 14 14 11 16 20 17 11 11 17 13 9 10 10 13 14 8 8 8 8

GFSGBSN_700_spd_144.txt.gz
Wind_Speed
39 41 37 37 38 38 37 37 39 39 35 34 33 30 29 21 20 21 24 24 19 17 16 14 17 14 13 11 13 12 12 13 11 11 11 11 13 12 11 10 14 20 17 20 20 21 22
38 37 37 37 37 35 36 37 38 37 36 35 33 31 30 27 24 22 19 19 23 22 20 20 18 17 13 10 11 12 12 14 13 14 14 13 13 11 13 12 14 16 17 18 21 23 24
38 37 36 37 35 34 33 34 34 34 33 32 31 31 31 31 32 27 24 24 22 23 24 26 22 19 17 14 9 8 13 15 15 15 17 14 12 12 13 10 14 12 12 12 10 10 17
37 37 36 36 35 35 35 34 34 35 33 33 31 31 31 32 31 29 29 24 21 24 27 29 26 22 20 17 16 13 15 16 17 16 15 16 13 12 13 11 12 10 10 0 4 4 6
36 36 36 36 35 35 36 36 35 36 35 34 33 31 32 32 30 30 29 30 28 30 30 28 26 23 22 20 14 11 8 10 12 13 15 15 13 11 12 11 10 6 5 4 5 3 1
37 37 36 35 36 35 35 35 35 34 35 36 35 33 32 32 33 34 37 32 33 30 32 27 33 30 24 21 14 8 9 15 14 13 12 12 14 14 13 11 4 6 4 7 10 7 6
38 36 36 36 36 35 35 34 33 32 33 33 33 32 31 31 33 34 34 36 34 31 34 38 30 28 29 22 23 20 20 18 17 15 14 13 17 17 7 10 10 11 13 12 11 11 7
37 36 35 34 33 32 32 32 31 30 30 31 31 30 29 30 28 31 34 36 36 33 37 31 36 38 33 33 31 26 21 19 20 17 16 20 23 9 12 13 12 13 15 16 16 12 10
34 32 30 29 27 26 26 26 25 25 26 26 27 27 29 27 28 29 30 31 31 34 40 51 41 41 32 31 35 31 25 22 21 20 22 26 15 12 9 12 15 16 17 17 13 15 16
32 30 28 27 26 25 24 23 23 23 23 24 24 25 25 23 28 27 26 22 26 26 22 43 44 51 44 36 40 37 31 27 26 24 20 22 23 24 20 19 18 21 20 14 12 13 12
31 29 28 27 26 25 24 24 23 23 23 24 25 27 24 23 24 20 19 19 19 14 1 14 16 24 27 36 42 37 29 32 33 27 23 19 13 18 24 25 21 21 17 19 19 16 15
30 28 28 27 26 27 28 28 27 27 27 27 27 30 28 27 25 21 20 16 14 10 10 9 14 15 18 22 31 25 20 30 25 24 27 30 20 14 19 23 22 17 16 15 18 16 7
31 30 30 30 31 31 30 29 28 29 28 28 27 29 31 29 26 20 20 18 12 10 14 20 19 16 17 19 25 21 24 36 31 25 34 31 32 26 19 17 15 15 10 2 1 4 5
34 33 32 32 31 31 30 29 30 30 29 27 24 27 31 30 27 24 23 18 10 20 33 14 9 21 26 27 27 29 24 38 36 24 8 20 12 31 30 31 20 20 20 8 4 3 3
36 35 34 34 34 33 32 31 30 29 30 28 28 31 35 33 30 26 25 26 22 33 34 35 33 18 27 28 25 30 32 38 39 35 20 9 14 15 21 26 21 14 24 15 7 9 2
39 37 36 36 34 34 33 31 30 30 29 29 32 34 38 35 33 29 33 36 40 41 37 17 24 25 20 29 26 27 24 30 40 34 33 16 7 13 20 16 22 13 18 12 8 2 4
40 38 37 36 35 35 33 33 33 31 27 30 34 38 43 37 33 37 45 53 49 46 39 36 29 20 23 26 32 33 25 23 13 23 27 33 15 12 23 21 23 23 17 8 10 5 4
38 38 37 36 36 35 35 34 33 31 30 31 35 41 45 43 39 48 55 56 48 44 42 41 36 34 33 22 29 37 32 28 17 23 26 31 18 15 26 18 16 13 24 23 10 5 4
39 39 37 36 36 36 34 33 32 29 27 29 34 40 43 47 47 55 56 56 52 46 44 34 34 33 30 36 16 34 37 28 25 19 22 28 19 10 12 17 15 17 18 23 21 15 7
39 39 36 35 36 34 32 31 30 27 22 21 26 27 35 45 50 52 53 53 56 50 41 30 34 33 22 24 36 21 22 31 28 21 23 25 22 21 21 18 22 16 17 19 20 12 10
37 36 34 33 33 31 30 30 29 24 17 21 33 37 39 50 56 47 46 47 49 48 53 40 36 36 36 23 28 30 28 33 27 28 25 19 22 22 9 9 24 22 22 19 17 15 12
32 32 31 29 29 29 29 28 25 22 18 24 41 40 26 38 55 50 52 47 45 47 41 46 43 33 30 37 38 34 36 36 35 26 26 23 20 19 18 10 11 19 17 14 15 15 16
29 28 26 26 27 28 28 25 24 22 19 26 35 22 21 40 33 44 48 48 40 35 37 37 38 36 38 38 34 35 34 27 27 31 25 20 22 16 13 13 12 12 18 17 21 19 14
29 25 24 24 26 26 25 23 22 24 21 22 21 10 25 32 26 56 36 36 43 38 33 35 33 38 39 31 25 21 15 18 21 15 19 26 28 14 9 15 4 10 14 22 20 17 17
28 24 22 20 21 23 23 22 22 27 26 22 30 16 20 36 17 49 44 33 34 27 29 31 37 35 30 24 25 19 18 18 15 15 16 22 25 11 9 13 3 12 15 20 22 20 19
26 23 20 18 18 20 22 21 21 23 25 27 24 17 15 23 40 25 41 33 37 33 31 26 24 26 33 32 29 12 11 13 11 11 20 18 17 14 12 4 6 7 12 15 12 16 17
25 21 18 18 18 19 18 17 18 16 18 16 19 27 17 13 22 29 32 40 39 37 35 31 31 28 28 30 23 15 6 18 14 17 28 21 18 18 10 4 5 7 8 9 8 7 6
26 21 16 16 19 18 19 18 21 18 19 16 19 22 24 22 19 25 36 41 39 42 44 38 36 33 26 29 18 14 10 18 14 22 27 26 18 15 15 6 8 11 12 12 7 6 4
21 17 15 16 14 27 26 15 18 21 20 18 16 24 23 23 21 17 35 30 35 36 43 38 39 34 24 21 14 17 10 17 19 18 17 23 20 14 14 11 11 7 16 12 10 7 6

GFSGBSN_700_spd_150.txt.gz
Wind_Speed
37 38 38 37 36 34 34 35 32 30 31 29 30 30 29 29 33 31 31 28 26 23 22 19 17 12 12 10 10 12 12 12 14 14 13 12 13 11 11 10 13 17 17 16 14 14 15
43 42 40 40 41 40 40 41 38 38 36 35 35 35 31 32 33 31 32 29 28 27 20 16 16 17 17 15 12 10 11 14 16 16 15 14 14 13 15 12 14 15 15 17 18 17 17
49 51 45 41 41 43 42 42 41 39 37 37 36 35 33 32 31 30 28 28 29 28 26 25 22 21 20 17 17 15 14 12 11 14 15 14 14 14 13 11 14 16 19 17 18 18 20
48 50 44 42 42 42 41 43 39 37 36 35 34 33 32 33 32 32 29 30 29 28 28 27 22 22 20 19 20 17 18 17 16 14 14 14 13 14 14 13 14 14 16 14 13 15 15
43 42 42 43 42 40 40 39 37 36 36 35 35 35 34 34 34 34 33 31 31 30 30 28 27 26 28 25 24 22 19 21 19 13 12 12 10 12 13 13 13 13 12 11 11 11 11
44 43 43 42 41 42 40 39 37 36 37 36 35 35 34 35 35 34 33 32 31 33 34 31 30 26 23 20 14 15 15 17 16 15 13 14 12 12 13 12 11 11 14 14 15 12 13
42 42 42 41 40 40 39 37 36 36 35 34 35 33 32 32 32 32 31 29 31 33 35 32 28 27 19 23 18 14 13 20 20 16 16 16 18 17 11 11 15 15 14 15 16 15 16
39 38 37 37 37 37 36 35 33 33 33 33 31 30 28 27 27 27 27 27 28 31 35 34 34 36 30 31 31 23 18 19 20 19 19 22 25 18 17 17 20 21 20 20 18 17 19
39 37 36 36 36 36 35 33 32 33 31 30 29 27 25 25 25 25 24 25 25 24 33 40 36 40 32 33 37 34 31 30 30 30 28 28 21 10 15 22 22 22 23 20 16 13 16
38 37 37 36 35 34 32 31 31 29 28 28 26 24 23 22 23 22 21 20 19 19 21 32 29 27 22 26 36 33 35 32 32 34 27 26 20 24 27 21 22 27 23 18 15 15 15
36 36 36 35 35 32 31 29 28 27 25 24 23 21 20 19 19 17 15 14 11 10 4 7 6 8 8 5 12 18 11 26 37 35 30 29 21 18 18 29 20 22 16 17 17 19 21
36 35 34 32 31 29 29 28 27 26 25 24 22 21 19 18 17 15 14 11 8 6 7 4 3 4 1 2 8 12 12 16 23 29 34 37 34 29 22 18 19 27 17 14 16 15 10
40 37 35 33 31 31 30 29 28 26 25 24 22 21 20 18 18 16 14 12 9 9 3 3 6 9 7 8 10 14 15 19 25 20 28 32 37 35 31 22 13 20 20 3 3 4 7
38 38 37 35 33 33 32 31 28 26 24 24 23 22 22 22 20 20 17 18 15 11 23 12 4 2 8 8 14 15 20 22 22 30 23 12 14 19 31 38 28 25 27 11 5 4 3
38 38 38 37 36 35 34 32 30 27 25 25 25 24 24 22 19 20 21 26 21 25 22 21 20 21 24 18 17 14 18 25 28 27 31 6 14 18 14 13 32 28 34 31 11 5 1
39 39 39 39 38 37 36 33 30 26 25 25 24 24 24 19 19 21 25 34 29 28 27 23 21 15 21 22 19 21 22 17 17 21 28 31 27 25 20 13 20 34 27 20 22 4 5
35 40 40 40 40 38 36 33 28 25 24 25 25 25 22 18 20 26 36 40 38 35 31 25 25 24 27 23 19 22 22 27 25 28 19 27 34 26 10 10 21 29 27 18 14 15 4
38 35 39 40 40 38 35 32 26 24 25 25 25 26 19 19 24 33 41 41 38 37 31 28 31 30 31 26 24 21 26 25 12 13 18 21 19 32 38 36 21 13 31 33 21 12 18
44 40 38 41 42 39 34 31 25 24 24 22 24 24 20 22 33 38 38 39 38 42 40 36 35 35 33 34 32 37 36 32 25 27 28 23 13 25 22 25 25 27 20 25 30 15 17
42 44 39 38 38 37 34 30 24 24 23 23 26 21 20 29 36 35 36 40 43 42 39 35 40 35 31 36 35 40 38 38 31 30 25 23 26 24 21 7 8 28 30 25 26 20 17
38 35 39 38 37 37 34 30 26 26 25 26 28 28 30 29 37 34 35 40 37 37 34 34 33 36 35 30 31 32 29 27 25 26 28 27 30 24 31 31 29 19 20 31 27 26 21
39 38 37 36 37 37 34 30 27 27 27 30 33 32 25 31 30 30 35 41 38 37 34 37 36 32 30 46 46 35 29 31 22 17 25 31 25 27 28 27 25 30 29 27 28 33 31
41 40 36 35 37 36 36 33 30 30 30 34 34 35 32 27 30 30 38 37 39 35 41 39 43 41 38 34 27 25 27 27 28 24 24 32 31 23 28 24 23 22 36 30 29 29 30
41 37 36 36 36 34 32 31 29 29 30 31 33 34 35 36 35 36 36 34 39 40 43 39 35 35 25 12 27 28 34 34 33 33 30 26 23 24 13 12 7 19 12 21 22 25 31
35 34 34 34 33 33 31 28 28 28 29 31 31 33 32 42 43 40 33 34 38 40 33 30 26 13 7 16 18 25 28 20 22 22 23 29 26 17 6 11 6 9 9 16 24 30 28
34 33 32 32 31 33 29 26 26 27 27 29 27 29 33 30 34 24 27 25 23 21 22 24 17 17 22 16 23 16 9 12 8 14 30 29 30 19 7 4 3 5 11 14 22 29 24
33 31 28 28 31 30 26 25 26 28 25 27 26 28 28 35 34 25 29 30 22 19 18 17 16 19 22 22 22 22 14 12 9 11 15 28 18 22 21 10 7 15 13 13 14 6 7
31 27 28 30 29 26 24 24 24 25 25 26 24 28 34 31 29 21 20 20 20 18 18 17 16 25 22 25 23 12 16 20 14 15 19 24 17 16 19 12 12 10 15 14 11 8 6
29 29 30 30 27 25 23 21 21 23 24 21 21 19 25 33 27 23 25 23 22 21 23 24 22 20 25 24 21 20 13 13 20 9 16 20 24 19 17 21 12 4 14 14 12 9 6